This is the latest recevied weather packets stored in our database for station/object N0NPO. If no packets are shown the sender has not sent any weather packets the latest 10 day(s).
| Time | Temp. | Humidity | Pressure | Rain* | Wind** | Luminosity | Snow |
|---|---|---|---|---|---|---|---|
| 1777488474 | 13.33° C | 1% | 1021.1 hPa | 0 mm | - | 367 W/m² | - |
| 1777488171 | 13.33° C | 1% | 1021.4 hPa | 0 mm | - | 487 W/m² | - |
| 1777487869 | 12.78° C | 1% | 1021.4 hPa | 0 mm | - | 728 W/m² | - |
| 1777487567 | 12.78° C | 1% | 1021.6 hPa | 0 mm | - | 777 W/m² | - |
| 1777487264 | 14.44° C | 1% | 1021.5 hPa | 0 mm | - | 798 W/m² | - |
| 1777486960 | 13.33° C | 1% | 1021.7 hPa | 0 mm | - | 697 W/m² | - |
| 1777486657 | 12.78° C | 1% | 1021.7 hPa | 0 mm | - | 643 W/m² | - |
| 1777486355 | 12.78° C | 1% | 1021.8 hPa | 0 mm | - | 358 W/m² | - |
| 1777486052 | 12.78° C | 1% | 1021.8 hPa | 0 mm | - | 806 W/m² | - |
| 1777485748 | 13.33° C | 1% | 1022.1 hPa | 0 mm | - | 736 W/m² | - |
| 1777485444 | 12.78° C | 1% | 1022 hPa | 0 mm | - | 723 W/m² | - |
| 1777485140 | 12.78° C | 1% | 1021.9 hPa | 0 mm | - | 730 W/m² | - |
| 1777484837 | 12.22° C | 1% | 1021.9 hPa | 0 mm | - | 727 W/m² | - |
| 1777484534 | 12.22° C | 1% | 1022 hPa | 0 mm | - | 766 W/m² | - |
| 1777484231 | 12.22° C | 1% | 1022.3 hPa | 0 mm | - | 727 W/m² | - |
| 1777483927 | 12.22° C | 1% | 1022.1 hPa | 0 mm | - | 670 W/m² | - |
| 1777483623 | 12.78° C | 1% | 1022.3 hPa | 0 mm | - | 676 W/m² | - |
| 1777483318 | 11.67° C | 1% | 1022.1 hPa | 0 mm | - | 637 W/m² | - |
| 1777483014 | 12.22° C | 1% | 1022.4 hPa | 0 mm | - | 769 W/m² | - |
| 1777482711 | 12.22° C | 1% | 1022.3 hPa | 0 mm | - | 597 W/m² | - |
| 1777482407 | 11.11° C | 1% | 1022.3 hPa | 0 mm | - | 678 W/m² | - |
| 1777482105 | 11.67° C | 1% | 1022.5 hPa | 0 mm | - | 768 W/m² | - |
| 1777481803 | 11.11° C | 1% | 1022.5 hPa | 0 mm | - | 772 W/m² | - |
| 1777481500 | 11.11° C | 1% | 1022.6 hPa | 0 mm | - | 629 W/m² | - |
| 1777481196 | 11.11° C | 1% | 1022.7 hPa | 0 mm | - | 714 W/m² | - |
* Rain latest hour (hover to see other rain measurements)
** Current wind speed in m/s (hover to see current wind gust speed)